IRIDIUM 47 DEB, 40255

Orbit data source: Space-Track

IRIDIUM 47 DEB, 40255 is space debris in LEO originally from a launch on Sat, 20 Dec 1997 UTC launched from the Air Force Western Test Range (AFWTR). Debris objects in space refer to the collection of defunct objects orbiting the Earth. Examples of debris include non-operational satellites, rocket bodies, and fragments generated from explosions, collisions, or faulty payload assembly.

Loading next visibility...
Identifier
40255, 1997-082Q
Orbit
LEO
Country
Flag of USUS
Related business
Manufacturer
Unknown
Mission
Spacecraft
Bus & Motor
Unknown
Mass
Unknown
Launch date (UTC)
1997-12-20 (28 years ago)
Launch vehicle
Unknown
Launch site
Air Force Western Test Range (AFWTR)
Object type
Payload
Rocket body
Debris
Shape & HBR
Unknown shape, 0.1 m
Radar Cross Section
Small (<0.1 m²)

Expand to show TLE details & history
Last TLE update: 19 hours ago

TLE from 19 hours ago
0 IRIDIUM 47 DEB
1 40255U 97082Q   26012.41792947  .00013099  00000-0  39744-2 0  9997
2 40255  86.2770  68.8749 0140080  46.0617 315.2037 14.36562504581996
Epoch: 2026-01-12T10:01Z
TLE epoch observation values (Epoch: 2026-01-12T10:01:49.106Z)
Latitude
-0.00004°
Longitude
166.50538°
Altitude
702.57 km
Speed
7.541 km/s
True Right ascension
04h 35m 29s
True Declination
0° 00' 00"
Sunlit
Object was in full shadow at epoch
Visualization orbit readout
Latitude
Unknown
Longitude
Unknown
Altitude
Unknown
Speed
Unknown
Apparent Right ascension
Unknown
Apparent Declination
Unknown
Sunlit
N/A
Visualization observer readout
Local Sidereal Time
05:58:14
Azimuth
Unknown
Elevation
Unknown
Doppler factor
Unknown
Orbital elements
Apogee altitude
866.928 km
Perigee altitude
666.754 km
Semi-major axis
7,144.978 km
Eccentricity
0.01401
Inclination
86.277°
RAAN
68.8749°
Arg. of periapsis
46.0617°
True anomaly
314.05855°
Mean anomaly
315.2037°
Eccentric anomaly
314.63255°
Mean motion
3.5937 °/min
Orbital period
100.18 mins
BSTAR
0.0039744
Loading maneuver chart data...
Computing Atmospheric mass density...

Documentation

Showing up to 5 results
|